���t,����,�O�C���x,�����t���O,�O�C���Ύ��x,�����t���O,���ԉ��x,�����t���O,���ԑ��Ύ��x,�����t���O,�g�C������,�����t���O,�L�b�`�����x,�����t���O,��󒲎����x,�����t���O
2003/11/1,0:00,16.5 ,0,76.0 ,0,20.5 ,0,59.2 ,0,21.6 ,0,19.6 ,0,19.5 ,0
2003/11/1,0:15,16.4 ,0,77.0 ,0,20.4 ,0,59.2 ,0,21.6 ,0,19.6 ,0,19.5 ,0
2003/11/1,0:30,16.2 ,0,77.0 ,0,20.4 ,0,59.1 ,0,21.6 ,0,19.5 ,0,19.4 ,0
2003/11/1,0:45,16.1 ,0,78.0 ,0,20.3 ,0,59.3 ,0,21.6 ,0,19.5 ,0,19.4 ,0
2003/11/1,1:00,15.9 ,0,79.0 ,0,20.2 ,0,59.3 ,0,21.6 ,0,19.4 ,0,19.3 ,0
2003/11/1,1:15,15.8 ,0,80.0 ,0,20.1 ,0,59.5 ,0,21.6 ,0,19.4 ,0,19.3 ,0
2003/11/1,1:30,15.9 ,0,80.0 ,0,20.0 ,0,59.6 ,0,21.6 ,0,19.3 ,0,19.2 ,0
2003/11/1,1:45,16.0 ,0,79.0 ,0,20.0 ,0,59.6 ,0,21.6 ,0,19.3 ,0,19.2 ,0
2003/11/1,2:00,16.0 ,0,78.0 ,0,19.9 ,0,59.7 ,0,21.6 ,0,19.2 ,0,19.1 ,0
2003/11/1,2:15,16.1 ,0,77.0 ,0,19.9 ,0,59.8 ,0,21.5 ,0,19.2 ,0,19.1 ,0
2003/11/1,2:30,16.0 ,0,78.0 ,0,19.8 ,0,59.6 ,0,21.5 ,0,19.1 ,0,19.0 ,0
2003/11/1,2:45,15.6 ,0,79.0 ,0,19.8 ,0,59.7 ,0,21.5 ,0,19.1 ,0,19.0 ,0
2003/11/1,3:00,15.7 ,0,79.0 ,0,19.7 ,0,59.8 ,0,21.5 ,0,19.0 ,0,18.9 ,0
2003/11/1,3:15,15.7 ,0,79.0 ,0,19.6 ,0,59.7 ,0,21.5 ,0,19.0 ,0,18.9 ,0
2003/11/1,3:30,15.7 ,0,80.0 ,0,19.6 ,0,59.9 ,0,21.5 ,0,18.9 ,0,18.8 ,0
2003/11/1,3:45,15.9 ,0,79.0 ,0,19.5 ,0,59.9 ,0,21.4 ,0,18.9 ,0,18.8 ,0
2003/11/1,4:00,15.7 ,0,79.0 ,0,19.5 ,0,59.8 ,0,21.4 ,0,18.8 ,0,18.7 ,0
2003/11/1,4:15,15.5 ,0,80.0 ,0,19.5 ,0,59.9 ,0,21.4 ,0,18.8 ,0,18.7 ,0
2003/11/1,4:30,15.5 ,0,80.0 ,0,19.4 ,0,59.9 ,0,21.4 ,0,18.8 ,0,18.6 ,0
2003/11/1,4:45,15.6 ,0,81.0 ,0,19.4 ,0,59.8 ,0,21.4 ,0,18.7 ,0,18.6 ,0
2003/11/1,5:00,15.8 ,0,81.0 ,0,19.3 ,0,60.0 ,0,21.3 ,0,18.7 ,0,18.6 ,0
2003/11/1,5:15,15.8 ,0,81.0 ,0,19.3 ,0,59.9 ,0,21.3 ,0,18.6 ,0,18.5 ,0
2003/11/1,5:30,15.8 ,0,82.0 ,0,19.3 ,0,59.8 ,0,21.3 ,0,18.6 ,0,18.5 ,0
2003/11/1,5:45,15.4 ,0,83.0 ,0,19.2 ,0,59.9 ,0,21.3 ,0,18.6 ,0,18.5 ,0
2003/11/1,6:00,15.3 ,0,85.0 ,0,19.2 ,0,59.9 ,0,21.3 ,0,18.5 ,0,18.4 ,0
2003/11/1,6:15,15.5 ,0,84.0 ,0,19.1 ,0,59.8 ,0,21.2 ,0,18.5 ,0,18.4 ,0
2003/11/1,6:30,15.4 ,0,85.0 ,0,19.1 ,0,60.0 ,0,21.2 ,0,18.5 ,0,18.4 ,0
2003/11/1,6:45,15.5 ,0,85.0 ,0,19.0 ,0,60.0 ,0,21.2 ,0,18.4 ,0,18.3 ,0
2003/11/1,7:00,15.6 ,0,85.0 ,0,19.0 ,0,60.0 ,0,21.2 ,0,18.4 ,0,18.3 ,0
2003/11/1,7:15,16.1 ,0,83.0 ,0,19.0 ,0,60.0 ,0,21.1 ,0,18.4 ,0,18.3 ,0
2003/11/1,7:30,16.8 ,0,79.0 ,0,19.0 ,0,60.0 ,0,21.1 ,0,18.3 ,0,18.3 ,0
2003/11/1,7:45,17.0 ,0,79.0 ,0,19.1 ,0,59.2 ,0,21.1 ,0,18.3 ,0,18.3 ,0
2003/11/1,8:00,17.8 ,0,75.0 ,0,19.2 ,0,59.1 ,0,21.1 ,0,18.3 ,0,18.4 ,0
2003/11/1,8:15,18.4 ,0,74.0 ,0,19.2 ,0,59.3 ,0,21.1 ,0,18.4 ,0,18.5 ,0
2003/11/1,8:30,18.9 ,0,72.0 ,0,19.2 ,0,59.0 ,0,21.1 ,0,18.4 ,0,18.5 ,0
2003/11/1,8:45,19.9 ,0,66.0 ,0,19.2 ,0,58.9 ,0,21.0 ,0,18.5 ,0,18.6 ,0
2003/11/1,9:00,20.0 ,0,65.0 ,0,19.3 ,0,58.8 ,0,21.0 ,0,18.5 ,0,18.7 ,0
2003/11/1,9:15,20.9 ,0,62.0 ,0,19.4 ,0,58.7 ,0,21.0 ,0,18.6 ,0,18.9 ,0
2003/11/1,9:30,21.9 ,0,59.0 ,0,19.5 ,0,58.6 ,0,21.0 ,0,18.7 ,0,19.0 ,0
2003/11/1,9:45,23.2 ,0,56.0 ,0,19.6 ,0,58.6 ,0,20.9 ,0,18.8 ,0,19.2 ,0
2003/11/1,10:00,23.8 ,0,54.0 ,0,19.7 ,0,58.4 ,0,20.9 ,0,18.9 ,0,19.4 ,0
2003/11/1,10:15,24.2 ,0,53.0 ,0,19.8 ,0,58.5 ,0,20.9 ,0,19.0 ,0,19.6 ,0
2003/11/1,10:30,23.1 ,0,55.0 ,0,20.0 ,0,58.3 ,0,20.9 ,0,19.2 ,0,19.8 ,0
2003/11/1,10:45,24.4 ,0,54.0 ,0,20.2 ,0,58.2 ,0,20.9 ,0,19.4 ,0,20.0 ,0
2003/11/1,11:00,24.8 ,0,48.0 ,0,20.3 ,0,58.2 ,0,20.9 ,0,19.5 ,0,20.1 ,0
2003/11/1,11:15,24.3 ,0,51.0 ,0,20.5 ,0,57.8 ,0,20.9 ,0,19.6 ,0,20.4 ,0
2003/11/1,11:30,24.1 ,0,51.0 ,0,20.7 ,0,57.6 ,0,20.9 ,0,19.8 ,0,20.6 ,0
2003/11/1,11:45,24.1 ,0,50.0 ,0,20.8 ,0,57.4 ,0,20.9 ,0,19.9 ,0,20.7 ,0
2003/11/1,12:00,24.6 ,0,49.0 ,0,21.0 ,0,57.1 ,0,20.9 ,0,20.1 ,0,20.9 ,0
2003/11/1,12:15,24.8 ,0,50.0 ,0,21.1 ,0,56.9 ,0,20.8 ,0,20.2 ,0,21.0 ,0
2003/11/1,12:30,24.8 ,0,53.0 ,0,21.2 ,0,56.8 ,0,20.8 ,0,20.4 ,0,21.2 ,0
2003/11/1,12:45,24.7 ,0,48.0 ,0,21.3 ,0,56.8 ,0,20.9 ,0,20.5 ,0,21.3 ,0
2003/11/1,13:00,24.7 ,0,48.0 ,0,21.5 ,0,56.6 ,0,20.9 ,0,20.6 ,0,21.5 ,0
2003/11/1,13:15,24.6 ,0,48.0 ,0,21.6 ,0,56.6 ,0,20.9 ,0,20.8 ,0,21.6 ,0
2003/11/1,13:30,24.0 ,0,51.0 ,0,21.7 ,0,56.5 ,0,20.9 ,0,20.9 ,0,21.7 ,0
2003/11/1,13:45,23.8 ,0,49.0 ,0,21.7 ,0,56.5 ,0,20.9 ,0,21.0 ,0,21.8 ,0
2003/11/1,14:00,24.0 ,0,49.0 ,0,21.8 ,0,56.5 ,0,20.9 ,0,21.1 ,0,21.9 ,0
2003/11/1,14:15,24.0 ,0,47.0 ,0,21.9 ,0,56.5 ,0,20.9 ,0,21.2 ,0,21.9 ,0
2003/11/1,14:30,23.8 ,0,48.0 ,0,21.9 ,0,56.4 ,0,20.9 ,0,21.2 ,0,22.0 ,0
2003/11/1,14:45,23.9 ,0,48.0 ,0,22.0 ,0,56.4 ,0,20.9 ,0,21.3 ,0,22.1 ,0
2003/11/1,15:00,23.6 ,0,48.0 ,0,22.0 ,0,56.4 ,0,20.9 ,0,21.4 ,0,22.1 ,0
2003/11/1,15:15,23.3 ,0,49.0 ,0,22.1 ,0,56.4 ,0,20.9 ,0,21.4 ,0,22.2 ,0
2003/11/1,15:30,23.1 ,0,49.0 ,0,22.1 ,0,56.4 ,0,20.9 ,0,21.5 ,0,22.2 ,0
2003/11/1,15:45,23.3 ,0,49.0 ,0,22.1 ,0,56.4 ,0,20.9 ,0,21.5 ,0,22.2 ,0
2003/11/1,16:00,23.1 ,0,50.0 ,0,22.2 ,0,56.3 ,0,20.9 ,0,21.6 ,0,22.2 ,0
2003/11/1,16:15,22.8 ,0,56.0 ,0,22.2 ,0,56.4 ,0,21.0 ,0,21.6 ,0,22.2 ,0
2003/11/1,16:30,22.5 ,0,62.0 ,0,22.2 ,0,56.5 ,0,21.0 ,0,21.7 ,0,22.2 ,0
2003/11/1,16:45,22.3 ,0,64.0 ,0,22.3 ,0,56.5 ,0,21.0 ,0,21.7 ,0,22.2 ,0
2003/11/1,17:00,22.1 ,0,66.0 ,0,22.3 ,0,56.5 ,0,21.0 ,0,21.7 ,0,22.2 ,0
2003/11/1,17:15,21.9 ,0,67.0 ,0,22.3 ,0,56.6 ,0,21.0 ,0,21.7 ,0,22.1 ,0
2003/11/1,17:30,21.6 ,0,69.0 ,0,22.3 ,0,56.6 ,0,21.0 ,0,21.7 ,0,22.1 ,0
2003/11/1,17:45,21.6 ,0,71.0 ,0,22.3 ,0,56.7 ,0,21.1 ,0,21.7 ,0,22.0 ,0
2003/11/1,18:00,21.5 ,0,71.0 ,0,22.4 ,0,56.7 ,0,21.1 ,0,21.7 ,0,22.0 ,0
2003/11/1,18:15,21.5 ,0,71.0 ,0,22.3 ,0,56.8 ,0,21.1 ,0,21.7 ,0,22.0 ,0
2003/11/1,18:30,21.3 ,0,72.0 ,0,22.4 ,0,56.8 ,0,21.1 ,0,21.7 ,0,21.9 ,0
2003/11/1,18:45,20.9 ,0,75.0 ,0,22.4 ,0,56.8 ,0,21.1 ,0,21.6 ,0,21.9 ,0
2003/11/1,19:00,20.6 ,0,78.0 ,0,22.3 ,0,56.9 ,0,21.1 ,0,21.6 ,0,21.8 ,0
2003/11/1,19:15,20.2 ,0,82.0 ,0,22.3 ,0,56.9 ,0,21.2 ,0,21.6 ,0,21.8 ,0
2003/11/1,19:30,19.7 ,0,89.0 ,0,22.3 ,0,56.8 ,0,21.2 ,0,21.5 ,0,21.7 ,0
2003/11/1,19:45,19.4 ,0,91.0 ,0,22.3 ,0,56.9 ,0,21.2 ,0,21.5 ,0,21.7 ,0
2003/11/1,20:00,19.3 ,0,94.0 ,0,22.3 ,0,57.0 ,0,21.2 ,0,21.5 ,0,21.6 ,0
2003/11/1,20:15,19.2 ,0,94.0 ,0,22.3 ,0,57.1 ,0,21.2 ,0,21.4 ,0,21.5 ,0
2003/11/1,20:30,18.9 ,0,96.0 ,0,22.2 ,0,57.2 ,0,21.2 ,0,21.4 ,0,21.4 ,0
2003/11/1,20:45,18.8 ,0,98.0 ,0,22.2 ,0,57.3 ,0,21.3 ,0,21.3 ,0,21.4 ,0
2003/11/1,21:00,18.8 ,0,99.0 ,0,22.2 ,0,57.2 ,0,21.3 ,0,21.3 ,0,21.3 ,0
2003/11/1,21:15,18.7 ,0,99.0 ,0,22.2 ,0,57.3 ,0,21.3 ,0,21.2 ,0,21.2 ,0
2003/11/1,21:30,18.8 ,0,99.0 ,0,22.1 ,0,57.2 ,0,21.3 ,0,21.2 ,0,21.2 ,0
2003/11/1,21:45,18.8 ,0,99.0 ,0,22.1 ,0,57.2 ,0,21.3 ,0,21.1 ,0,21.1 ,0
2003/11/1,22:00,18.8 ,0,99.0 ,0,22.1 ,0,57.3 ,0,21.3 ,0,21.1 ,0,21.0 ,0
2003/11/1,22:15,18.6 ,0,99.0 ,0,22.0 ,0,57.2 ,0,21.3 ,0,21.0 ,0,21.0 ,0
2003/11/1,22:30,18.5 ,0,99.0 ,0,21.9 ,0,59.4 ,0,21.0 ,0,21.0 ,0,21.0 ,0
2003/11/1,22:45,18.5 ,0,99.0 ,0,22.0 ,0,60.3 ,0,21.0 ,0,21.0 ,0,21.0 ,0
2003/11/1,23:00,18.5 ,0,99.0 ,0,22.1 ,0,61.3 ,0,21.0 ,0,21.3 ,0,21.0 ,0
2003/11/1,23:15,18.5 ,0,99.0 ,0,22.1 ,0,61.2 ,0,21.0 ,0,21.3 ,0,21.0 ,0
2003/11/1,23:30,18.4 ,0,99.0 ,0,22.1 ,0,61.9 ,0,21.1 ,0,21.2 ,0,21.1 ,0
2003/11/1,23:45,18.5 ,0,99.0 ,0,22.1 ,0,63.1 ,0,21.0 ,0,21.2 ,0,21.1 ,0
2003/11/2,0:00,18.4 ,0,99.0 ,0,22.1 ,0,63.3 ,0,21.0 ,0,21.2 ,0,21.1 ,0
2003/11/2,0:15,18.5 ,0,99.0 ,0,22.2 ,0,62.9 ,0,21.0 ,0,21.2 ,0,21.4 ,0
2003/11/2,0:30,18.5 ,0,99.0 ,0,22.2 ,0,63.4 ,0,21.0 ,0,21.2 ,0,21.5 ,0
2003/11/2,0:45,18.5 ,0,99.0 ,0,22.2 ,0,63.6 ,0,21.0 ,0,21.2 ,0,21.4 ,0
2003/11/2,1:00,18.6 ,0,99.0 ,0,22.2 ,0,63.5 ,0,21.0 ,0,21.2 ,0,21.3 ,0
2003/11/2,1:15,18.7 ,0,97.0 ,0,22.2 ,0,63.6 ,0,21.0 ,0,21.3 ,0,21.3 ,0
2003/11/2,1:30,18.7 ,0,96.0 ,0,22.1 ,0,63.3 ,0,21.1 ,0,21.2 ,0,21.4 ,0
2003/11/2,1:45,18.6 ,0,97.0 ,0,22.2 ,0,64.0 ,0,21.1 ,0,21.2 ,0,21.4 ,0
2003/11/2,2:00,18.6 ,0,98.0 ,0,22.2 ,0,64.4 ,0,21.1 ,0,21.2 ,0,21.3 ,0
2003/11/2,2:15,18.5 ,0,99.0 ,0,22.2 ,0,64.4 ,0,21.1 ,0,21.1 ,0,21.3 ,0
2003/11/2,2:30,18.4 ,0,99.0 ,0,22.2 ,0,65.0 ,0,21.1 ,0,21.1 ,0,21.3 ,0
2003/11/2,2:45,18.5 ,0,99.0 ,0,22.1 ,0,64.9 ,0,21.2 ,0,21.1 ,0,21.2 ,0
2003/11/2,3:00,18.5 ,0,99.0 ,0,22.0 ,0,64.8 ,0,21.2 ,0,21.1 ,0,21.1 ,0
2003/11/2,3:15,18.4 ,0,99.0 ,0,22.0 ,0,64.7 ,0,21.2 ,0,21.0 ,0,21.0 ,0
2003/11/2,3:30,18.4 ,0,99.0 ,0,22.0 ,0,64.7 ,0,21.2 ,0,21.0 ,0,21.0 ,0
2003/11/2,3:45,18.2 ,0,99.0 ,0,21.9 ,0,64.8 ,0,21.2 ,0,21.0 ,0,20.9 ,0
2003/11/2,4:00,18.1 ,0,99.0 ,0,21.8 ,0,64.9 ,0,21.2 ,0,21.0 ,0,20.9 ,0
2003/11/2,4:15,17.8 ,0,99.0 ,0,21.7 ,0,65.0 ,0,21.2 ,0,20.9 ,0,20.8 ,0
2003/11/2,4:30,17.8 ,0,99.0 ,0,21.7 ,0,65.1 ,0,21.2 ,0,20.9 ,0,20.8 ,0
2003/11/2,4:45,17.5 ,0,99.0 ,0,21.6 ,0,65.0 ,0,21.3 ,0,20.8 ,0,20.7 ,0
2003/11/2,5:00,17.3 ,0,99.0 ,0,21.6 ,0,65.0 ,0,21.3 ,0,20.8 ,0,20.7 ,0
2003/11/2,5:15,17.4 ,0,99.0 ,0,21.5 ,0,65.2 ,0,21.3 ,0,20.7 ,0,20.6 ,0
2003/11/2,5:30,17.4 ,0,99.0 ,0,21.4 ,0,65.3 ,0,21.3 ,0,20.7 ,0,20.6 ,0
2003/11/2,5:45,17.5 ,0,99.0 ,0,21.4 ,0,65.5 ,0,21.3 ,0,20.6 ,0,20.5 ,0
2003/11/2,6:00,17.5 ,0,99.0 ,0,21.3 ,0,65.5 ,0,21.3 ,0,20.6 ,0,20.5 ,0
2003/11/2,6:15,17.2 ,0,99.0 ,0,21.3 ,0,65.3 ,0,21.3 ,0,20.5 ,0,20.4 ,0
2003/11/2,6:30,17.0 ,0,99.0 ,0,21.2 ,0,65.4 ,0,21.3 ,0,20.5 ,0,20.4 ,0
2003/11/2,6:45,16.9 ,0,99.0 ,0,21.2 ,0,65.4 ,0,21.3 ,0,20.4 ,0,20.3 ,0
2003/11/2,7:00,16.8 ,0,99.0 ,0,21.1 ,0,65.4 ,0,21.4 ,0,20.3 ,0,20.3 ,0
2003/11/2,7:15,16.9 ,0,99.0 ,0,21.0 ,0,65.5 ,0,21.4 ,0,20.3 ,0,20.2 ,0
2003/11/2,7:30,17.3 ,0,99.0 ,0,21.0 ,0,65.6 ,0,21.4 ,0,20.2 ,0,20.2 ,0
2003/11/2,7:45,17.8 ,0,99.0 ,0,21.0 ,0,65.5 ,0,21.4 ,0,20.2 ,0,20.1 ,0
2003/11/2,8:00,18.3 ,0,99.0 ,0,21.0 ,0,65.5 ,0,21.4 ,0,20.1 ,0,20.1 ,0
2003/11/2,8:15,19.1 ,0,99.0 ,0,21.1 ,0,64.6 ,0,21.4 ,0,20.1 ,0,20.1 ,0
2003/11/2,8:30,20.4 ,0,98.0 ,0,21.2 ,0,64.0 ,0,21.4 ,0,20.2 ,0,20.2 ,0
2003/11/2,8:45,21.3 ,0,87.0 ,0,21.3 ,0,64.2 ,0,21.4 ,0,20.2 ,0,20.3 ,0
2003/11/2,9:00,22.2 ,0,82.0 ,0,21.6 ,0,66.6 ,0,21.3 ,0,20.3 ,0,20.5 ,0
2003/11/2,9:15,22.9 ,0,77.0 ,0,21.9 ,0,69.4 ,0,21.4 ,0,20.7 ,0,20.7 ,0
2003/11/2,9:30,23.5 ,0,75.0 ,0,22.2 ,0,68.7 ,0,21.4 ,0,20.8 ,0,20.9 ,0
2003/11/2,9:45,24.1 ,0,69.0 ,0,22.5 ,0,73.4 ,0,21.2 ,0,21.5 ,0,21.1 ,0
2003/11/2,10:00,23.3 ,0,69.0 ,0,22.8 ,0,72.1 ,0,21.2 ,0,21.9 ,0,21.4 ,0
2003/11/2,10:15,24.0 ,0,63.0 ,0,23.1 ,0,72.1 ,0,21.2 ,0,21.9 ,0,21.8 ,0
2003/11/2,10:30,25.5 ,0,59.0 ,0,23.2 ,0,70.8 ,0,21.2 ,0,21.9 ,0,21.9 ,0
2003/11/2,10:45,25.5 ,0,60.0 ,0,23.5 ,0,69.0 ,0,21.2 ,0,21.9 ,0,22.1 ,0
2003/11/2,11:00,24.4 ,0,61.0 ,0,23.8 ,0,68.1 ,0,21.2 ,0,22.0 ,0,22.4 ,0
2003/11/2,11:15,24.7 ,0,60.0 ,0,24.1 ,0,68.1 ,0,21.2 ,0,22.2 ,0,22.6 ,0
2003/11/2,11:30,25.2 ,0,58.0 ,0,24.3 ,0,66.4 ,0,21.3 ,0,22.3 ,0,22.7 ,0
2003/11/2,11:45,25.7 ,0,56.0 ,0,24.5 ,0,65.8 ,0,21.3 ,0,22.4 ,0,22.9 ,0
2003/11/2,12:00,24.9 ,0,57.0 ,0,24.8 ,0,63.8 ,0,21.3 ,0,22.6 ,0,23.2 ,0
2003/11/2,12:15,25.0 ,0,55.0 ,0,24.9 ,0,63.5 ,0,21.4 ,0,22.8 ,0,23.5 ,0
2003/11/2,12:30,25.3 ,0,54.0 ,0,25.1 ,0,63.0 ,0,21.4 ,0,22.9 ,0,23.6 ,0
2003/11/2,12:45,23.9 ,0,65.0 ,0,25.3 ,0,59.5 ,0,21.4 ,0,23.3 ,0,23.8 ,0
2003/11/2,13:00,23.8 ,0,66.0 ,0,25.4 ,0,62.7 ,0,21.5 ,0,23.5 ,0,24.0 ,0
2003/11/2,13:15,23.8 ,0,65.0 ,0,25.4 ,0,63.7 ,0,21.6 ,0,23.7 ,0,24.0 ,0
2003/11/2,13:30,24.1 ,0,65.0 ,0,25.4 ,0,63.4 ,0,21.6 ,0,23.6 ,0,24.0 ,0
2003/11/2,13:45,24.2 ,0,67.0 ,0,25.6 ,0,63.0 ,0,21.6 ,0,23.6 ,0,24.1 ,0
2003/11/2,14:00,24.3 ,0,66.0 ,0,25.8 ,0,63.7 ,0,21.6 ,0,23.7 ,0,24.3 ,0
2003/11/2,14:15,24.1 ,0,68.0 ,0,25.8 ,0,63.8 ,0,21.7 ,0,23.7 ,0,24.4 ,0
2003/11/2,14:30,24.1 ,0,67.0 ,0,25.8 ,0,64.7 ,0,21.7 ,0,23.8 ,0,24.4 ,0
2003/11/2,14:45,23.8 ,0,69.0 ,0,25.8 ,0,64.5 ,0,21.7 ,0,23.9 ,0,24.5 ,0
2003/11/2,15:00,23.5 ,0,71.0 ,0,25.8 ,0,64.5 ,0,21.7 ,0,23.9 ,0,24.6 ,0
2003/11/2,15:15,23.2 ,0,72.0 ,0,25.7 ,0,64.9 ,0,21.7 ,0,23.9 ,0,24.6 ,0
2003/11/2,15:30,23.1 ,0,72.0 ,0,25.6 ,0,65.2 ,0,21.7 ,0,23.9 ,0,24.6 ,0
2003/11/2,15:45,23.0 ,0,74.0 ,0,25.6 ,0,65.3 ,0,21.8 ,0,23.9 ,0,24.5 ,0
2003/11/2,16:00,23.0 ,0,75.0 ,0,25.5 ,0,65.3 ,0,21.8 ,0,24.0 ,0,24.5 ,0
2003/11/2,16:15,22.9 ,0,76.0 ,0,25.5 ,0,64.8 ,0,21.8 ,0,24.0 ,0,24.4 ,0
2003/11/2,16:30,22.9 ,0,78.0 ,0,25.5 ,0,65.4 ,0,21.9 ,0,24.0 ,0,24.4 ,0
2003/11/2,16:45,22.8 ,0,79.0 ,0,25.5 ,0,65.7 ,0,21.9 ,0,24.0 ,0,24.4 ,0
2003/11/2,17:00,22.6 ,0,80.0 ,0,25.4 ,0,66.4 ,0,21.9 ,0,24.0 ,0,24.3 ,0
2003/11/2,17:15,22.5 ,0,80.0 ,0,25.4 ,0,67.5 ,0,22.0 ,0,24.0 ,0,24.3 ,0
2003/11/2,17:30,22.3 ,0,82.0 ,0,25.4 ,0,67.5 ,0,22.0 ,0,24.0 ,0,24.2 ,0
2003/11/2,17:45,22.1 ,0,83.0 ,0,25.4 ,0,68.1 ,0,22.1 ,0,24.0 ,0,24.2 ,0
2003/11/2,18:00,22.0 ,0,83.0 ,0,25.3 ,0,67.9 ,0,22.1 ,0,24.0 ,0,24.1 ,0
2003/11/2,18:15,21.9 ,0,83.0 ,0,25.3 ,0,68.0 ,0,22.2 ,0,23.9 ,0,24.1 ,0
2003/11/2,18:30,21.9 ,0,83.0 ,0,25.3 ,0,67.8 ,0,22.2 ,0,23.9 ,0,24.0 ,0
2003/11/2,18:45,21.8 ,0,84.0 ,0,25.3 ,0,67.8 ,0,22.2 ,0,23.9 ,0,23.9 ,0
2003/11/2,19:00,21.6 ,0,85.0 ,0,25.2 ,0,67.9 ,0,22.2 ,0,23.9 ,0,23.8 ,0
2003/11/2,19:15,21.5 ,0,86.0 ,0,25.1 ,0,68.2 ,0,22.3 ,0,23.9 ,0,23.7 ,0
2003/11/2,19:30,21.2 ,0,88.0 ,0,25.1 ,0,68.5 ,0,22.3 ,0,23.8 ,0,23.6 ,0
2003/11/2,19:45,21.0 ,0,89.0 ,0,25.1 ,0,68.5 ,0,22.3 ,0,23.8 ,0,23.5 ,0
2003/11/2,20:00,20.8 ,0,90.0 ,0,25.0 ,0,68.4 ,0,22.3 ,0,23.8 ,0,23.4 ,0
2003/11/2,20:15,20.7 ,0,91.0 ,0,25.1 ,0,67.6 ,0,22.4 ,0,24.5 ,0,23.4 ,0
2003/11/2,20:30,20.6 ,0,92.0 ,0,25.1 ,0,66.9 ,0,22.4 ,0,25.5 ,0,23.4 ,0
2003/11/2,20:45,20.6 ,0,92.0 ,0,25.2 ,0,67.4 ,0,22.4 ,0,25.1 ,0,23.4 ,0
2003/11/2,21:00,20.7 ,0,92.0 ,0,25.2 ,0,67.8 ,0,22.4 ,0,24.7 ,0,23.4 ,0
2003/11/2,21:15,20.6 ,0,92.0 ,0,25.2 ,0,67.5 ,0,21.7 ,0,24.4 ,0,23.4 ,0
2003/11/2,21:30,20.3 ,0,93.0 ,0,25.2 ,0,66.9 ,0,21.8 ,0,24.2 ,0,23.3 ,0
2003/11/2,21:45,20.1 ,0,94.0 ,0,25.1 ,0,66.6 ,0,21.8 ,0,24.1 ,0,23.3 ,0
2003/11/2,22:00,20.4 ,0,96.0 ,0,25.1 ,0,66.3 ,0,21.8 ,0,23.9 ,0,23.2 ,0
2003/11/2,22:15,20.4 ,0,96.0 ,0,24.9 ,0,66.7 ,0,21.8 ,0,23.8 ,0,23.2 ,0
2003/11/2,22:30,20.4 ,0,95.0 ,0,24.8 ,0,67.2 ,0,21.2 ,0,23.7 ,0,23.2 ,0
2003/11/2,22:45,20.3 ,0,95.0 ,0,24.7 ,0,67.7 ,0,20.9 ,0,23.7 ,0,23.1 ,0
2003/11/2,23:00,20.1 ,0,96.0 ,0,24.6 ,0,68.2 ,0,20.9 ,0,23.6 ,0,23.1 ,0
2003/11/2,23:15,20.3 ,0,97.0 ,0,24.6 ,0,68.6 ,0,21.0 ,0,23.5 ,0,23.2 ,0
2003/11/2,23:30,20.3 ,0,96.0 ,0,24.4 ,0,68.7 ,0,21.0 ,0,23.4 ,0,23.2 ,0
2003/11/2,23:45,20.2 ,0,96.0 ,0,24.4 ,0,69.0 ,0,20.9 ,0,23.4 ,0,23.4 ,0
2003/11/3,0:00,20.2 ,0,97.0 ,0,24.4 ,0,69.2 ,0,21.0 ,0,23.4 ,0,23.3 ,0
2003/11/3,0:15,20.3 ,0,97.0 ,0,24.4 ,0,70.1 ,0,21.2 ,0,23.3 ,0,23.3 ,0
2003/11/3,0:30,20.3 ,0,97.0 ,0,24.4 ,0,70.4 ,0,21.2 ,0,23.3 ,0,23.2 ,0
2003/11/3,0:45,20.3 ,0,97.0 ,0,24.3 ,0,70.6 ,0,21.2 ,0,23.3 ,0,23.2 ,0
2003/11/3,1:00,20.3 ,0,97.0 ,0,24.3 ,0,69.9 ,0,21.4 ,0,23.2 ,0,23.1 ,0
2003/11/3,1:15,20.5 ,0,96.0 ,0,24.2 ,0,69.6 ,0,21.4 ,0,23.2 ,0,23.1 ,0
2003/11/3,1:30,20.6 ,0,95.0 ,0,24.1 ,0,69.6 ,0,21.4 ,0,23.2 ,0,23.0 ,0
2003/11/3,1:45,20.5 ,0,95.0 ,0,24.1 ,0,69.8 ,0,21.5 ,0,23.1 ,0,23.0 ,0
2003/11/3,2:00,20.3 ,0,93.0 ,0,24.0 ,0,69.9 ,0,21.5 ,0,23.1 ,0,22.9 ,0
2003/11/3,2:15,20.1 ,0,93.0 ,0,24.0 ,0,69.9 ,0,21.6 ,0,23.1 ,0,22.9 ,0
2003/11/3,2:30,19.9 ,0,92.0 ,0,23.9 ,0,70.2 ,0,21.6 ,0,23.0 ,0,22.8 ,0
2003/11/3,2:45,19.8 ,0,90.0 ,0,23.8 ,0,70.3 ,0,21.7 ,0,23.0 ,0,22.8 ,0
2003/11/3,3:00,19.6 ,0,91.0 ,0,23.8 ,0,70.0 ,0,21.7 ,0,22.9 ,0,22.7 ,0
2003/11/3,3:15,19.4 ,0,92.0 ,0,23.7 ,0,70.0 ,0,21.7 ,0,22.9 ,0,22.6 ,0
2003/11/3,3:30,19.2 ,0,94.0 ,0,23.6 ,0,69.9 ,0,21.7 ,0,22.8 ,0,22.6 ,0
2003/11/3,3:45,19.0 ,0,94.0 ,0,23.6 ,0,69.7 ,0,21.8 ,0,22.7 ,0,22.5 ,0
2003/11/3,4:00,18.9 ,0,97.0 ,0,23.5 ,0,69.7 ,0,21.8 ,0,22.7 ,0,22.4 ,0
2003/11/3,4:15,18.6 ,0,98.0 ,0,23.4 ,0,69.6 ,0,21.8 ,0,22.6 ,0,22.3 ,0
2003/11/3,4:30,18.4 ,0,99.0 ,0,23.3 ,0,69.4 ,0,21.8 ,0,22.5 ,0,22.2 ,0
2003/11/3,4:45,18.4 ,0,99.0 ,0,23.2 ,0,69.6 ,0,21.7 ,0,22.5 ,0,22.0 ,0
2003/11/3,5:00,18.4 ,0,99.0 ,0,23.2 ,0,69.4 ,0,21.7 ,0,22.4 ,0,21.9 ,0
2003/11/3,5:15,18.3 ,0,99.0 ,0,23.0 ,0,69.7 ,0,21.7 ,0,22.2 ,0,21.8 ,0
2003/11/3,5:30,18.1 ,0,99.0 ,0,22.9 ,0,69.9 ,0,21.8 ,0,22.2 ,0,21.8 ,0
2003/11/3,5:45,18.0 ,0,99.0 ,0,22.8 ,0,69.9 ,0,21.8 ,0,22.1 ,0,21.7 ,0
2003/11/3,6:00,18.1 ,0,99.0 ,0,22.8 ,0,69.8 ,0,21.8 ,0,22.0 ,0,21.6 ,0
2003/11/3,6:15,17.9 ,0,99.0 ,0,22.6 ,0,70.0 ,0,21.8 ,0,21.9 ,0,21.5 ,0
2003/11/3,6:30,17.8 ,0,99.0 ,0,22.6 ,0,69.9 ,0,21.8 ,0,21.8 ,0,21.4 ,0
2003/11/3,6:45,17.7 ,0,99.0 ,0,22.5 ,0,69.9 ,0,21.8 ,0,21.7 ,0,21.3 ,0
2003/11/3,7:00,17.8 ,0,99.0 ,0,22.4 ,0,70.0 ,0,21.9 ,0,21.7 ,0,21.1 ,0
2003/11/3,7:15,17.8 ,0,99.0 ,0,22.3 ,0,70.4 ,0,21.9 ,0,21.5 ,0,21.1 ,0
2003/11/3,7:30,18.0 ,0,99.0 ,0,22.2 ,0,70.5 ,0,21.9 ,0,21.5 ,0,21.0 ,0
2003/11/3,7:45,18.1 ,0,99.0 ,0,22.2 ,0,70.4 ,0,21.9 ,0,21.4 ,0,21.0 ,0
2003/11/3,8:00,18.3 ,0,99.0 ,0,22.1 ,0,70.7 ,0,21.9 ,0,21.3 ,0,20.9 ,0
2003/11/3,8:15,18.5 ,0,99.0 ,0,22.1 ,0,70.4 ,0,21.6 ,0,21.5 ,0,20.9 ,0
2003/11/3,8:30,18.6 ,0,97.0 ,0,22.1 ,0,71.0 ,0,21.5 ,0,22.0 ,0,20.8 ,0
2003/11/3,8:45,18.9 ,0,96.0 ,0,22.2 ,0,69.9 ,0,21.5 ,0,22.5 ,0,20.8 ,0
2003/11/3,9:00,18.9 ,0,94.0 ,0,22.3 ,0,68.7 ,0,21.4 ,0,22.5 ,0,20.9 ,0
2003/11/3,9:15,19.2 ,0,92.0 ,0,22.3 ,0,71.6 ,0,21.4 ,0,22.3 ,0,20.9 ,0
2003/11/3,9:30,19.9 ,0,89.0 ,0,22.3 ,0,70.7 ,0,21.4 ,0,22.2 ,0,20.5 ,0
2003/11/3,9:45,20.3 ,0,86.0 ,0,22.4 ,0,68.8 ,0,21.4 ,0,22.0 ,0,20.5 ,0
2003/11/3,10:00,20.4 ,0,83.0 ,0,22.4 ,0,69.2 ,0,21.3 ,0,22.0 ,0,20.7 ,0
2003/11/3,10:15,20.7 ,0,83.0 ,0,22.4 ,0,70.2 ,0,21.3 ,0,22.0 ,0,20.8 ,0
2003/11/3,10:30,21.2 ,0,80.0 ,0,22.5 ,0,69.8 ,0,21.3 ,0,22.0 ,0,21.0 ,0
2003/11/3,10:45,21.2 ,0,79.0 ,0,22.5 ,0,69.9 ,0,21.4 ,0,22.1 ,0,21.1 ,0
2003/11/3,11:00,21.2 ,0,78.0 ,0,22.5 ,0,69.5 ,0,21.4 ,0,22.1 ,0,21.2 ,0
2003/11/3,11:15,21.7 ,0,76.0 ,0,22.6 ,0,69.7 ,0,21.4 ,0,22.1 ,0,21.4 ,0
2003/11/3,11:30,22.2 ,0,75.0 ,0,22.6 ,0,69.4 ,0,21.4 ,0,22.2 ,0,21.5 ,0
2003/11/3,11:45,21.8 ,0,73.0 ,0,22.6 ,0,69.7 ,0,21.4 ,0,22.2 ,0,21.7 ,0
2003/11/3,12:00,22.1 ,0,75.0 ,0,22.7 ,0,69.8 ,0,21.4 ,0,22.3 ,0,21.8 ,0
2003/11/3,12:15,22.6 ,0,73.0 ,0,22.7 ,0,69.2 ,0,21.4 ,0,22.3 ,0,21.9 ,0
2003/11/3,12:30,22.4 ,0,74.0 ,0,22.8 ,0,69.0 ,0,21.4 ,0,22.4 ,0,22.0 ,0
2003/11/3,12:45,22.2 ,0,75.0 ,0,22.8 ,0,69.1 ,0,21.5 ,0,22.5 ,0,22.1 ,0
2003/11/3,13:00,22.7 ,0,72.0 ,0,22.8 ,0,69.1 ,0,21.5 ,0,22.5 ,0,22.2 ,0
2003/11/3,13:15,22.9 ,0,71.0 ,0,22.9 ,0,68.9 ,0,21.5 ,0,22.5 ,0,22.2 ,0
2003/11/3,13:30,22.9 ,0,66.0 ,0,22.9 ,0,68.9 ,0,21.5 ,0,22.6 ,0,22.3 ,0
2003/11/3,13:45,22.9 ,0,65.0 ,0,23.0 ,0,68.7 ,0,21.5 ,0,22.6 ,0,22.4 ,0
2003/11/3,14:00,23.1 ,0,64.0 ,0,23.0 ,0,68.4 ,0,21.5 ,0,22.7 ,0,22.5 ,0
2003/11/3,14:15,23.0 ,0,64.0 ,0,23.1 ,0,68.3 ,0,21.5 ,0,22.8 ,0,22.5 ,0
2003/11/3,14:30,22.8 ,0,67.0 ,0,23.1 ,0,68.3 ,0,21.5 ,0,22.9 ,0,22.5 ,0
2003/11/3,14:45,22.7 ,0,68.0 ,0,23.2 ,0,68.1 ,0,21.5 ,0,22.9 ,0,22.6 ,0
2003/11/3,15:00,22.6 ,0,69.0 ,0,23.2 ,0,67.9 ,0,21.5 ,0,23.0 ,0,22.7 ,0
2003/11/3,15:15,22.6 ,0,69.0 ,0,23.3 ,0,67.8 ,0,21.6 ,0,23.0 ,0,22.7 ,0
2003/11/3,15:30,22.6 ,0,69.0 ,0,23.3 ,0,67.6 ,0,21.6 ,0,23.0 ,0,22.8 ,0
2003/11/3,15:45,22.4 ,0,69.0 ,0,23.4 ,0,67.8 ,0,21.6 ,0,23.1 ,0,22.8 ,0
2003/11/3,16:00,22.0 ,0,72.0 ,0,23.4 ,0,67.6 ,0,21.6 ,0,23.1 ,0,22.8 ,0
2003/11/3,16:15,21.9 ,0,72.0 ,0,23.4 ,0,67.4 ,0,21.6 ,0,23.1 ,0,22.8 ,0
2003/11/3,16:30,21.7 ,0,74.0 ,0,23.4 ,0,67.5 ,0,21.6 ,0,23.1 ,0,22.7 ,0
2003/11/3,16:45,21.5 ,0,75.0 ,0,23.4 ,0,67.7 ,0,21.7 ,0,23.0 ,0,22.7 ,0
2003/11/3,17:00,21.2 ,0,78.0 ,0,23.4 ,0,68.3 ,0,21.7 ,0,23.0 ,0,22.7 ,0
2003/11/3,17:15,21.0 ,0,77.0 ,0,23.3 ,0,68.9 ,0,21.7 ,0,23.0 ,0,22.7 ,0
2003/11/3,17:30,20.7 ,0,81.0 ,0,23.3 ,0,69.9 ,0,21.7 ,0,22.9 ,0,22.6 ,0
2003/11/3,17:45,20.4 ,0,83.0 ,0,23.1 ,0,69.6 ,0,21.7 ,0,22.8 ,0,22.5 ,0
2003/11/3,18:00,20.3 ,0,83.0 ,0,23.0 ,0,72.1 ,0,21.8 ,0,22.7 ,0,22.4 ,0
2003/11/3,18:15,20.1 ,0,82.0 ,0,23.0 ,0,70.8 ,0,21.8 ,0,22.6 ,0,22.3 ,0
2003/11/3,18:30,20.0 ,0,83.0 ,0,23.0 ,0,70.2 ,0,21.8 ,0,22.5 ,0,22.2 ,0
2003/11/3,18:45,20.0 ,0,83.0 ,0,23.0 ,0,69.6 ,0,21.8 ,0,22.4 ,0,22.0 ,0
2003/11/3,19:00,19.8 ,0,84.0 ,0,23.0 ,0,69.5 ,0,21.8 ,0,22.3 ,0,21.8 ,0
2003/11/3,19:15,19.6 ,0,85.0 ,0,23.0 ,0,69.2 ,0,21.8 ,0,22.2 ,0,21.6 ,0
2003/11/3,19:30,19.7 ,0,86.0 ,0,23.0 ,0,69.2 ,0,21.7 ,0,22.2 ,0,21.5 ,0
2003/11/3,19:45,19.6 ,0,86.0 ,0,23.0 ,0,69.0 ,0,21.7 ,0,22.1 ,0,21.2 ,0
2003/11/3,20:00,19.5 ,0,87.0 ,0,22.9 ,0,69.1 ,0,21.7 ,0,22.0 ,0,21.2 ,0
2003/11/3,20:15,19.4 ,0,87.0 ,0,22.9 ,0,70.5 ,0,21.7 ,0,22.0 ,0,21.4 ,0
2003/11/3,20:30,19.2 ,0,88.0 ,0,22.9 ,0,70.0 ,0,21.2 ,0,22.0 ,0,21.3 ,0
2003/11/3,20:45,19.3 ,0,89.0 ,0,22.9 ,0,69.3 ,0,21.2 ,0,22.0 ,0,21.1 ,0
2003/11/3,21:00,19.3 ,0,88.0 ,0,22.9 ,0,68.3 ,0,21.2 ,0,21.9 ,0,20.6 ,0
2003/11/3,21:15,19.4 ,0,85.0 ,0,22.9 ,0,68.2 ,0,21.2 ,0,21.8 ,0,20.5 ,0
2003/11/3,21:30,19.3 ,0,85.0 ,0,22.9 ,0,68.4 ,0,21.3 ,0,21.8 ,0,20.4 ,0
2003/11/3,21:45,19.2 ,0,86.0 ,0,22.8 ,0,68.8 ,0,21.3 ,0,21.7 ,0,20.5 ,0
2003/11/3,22:00,19.0 ,0,87.0 ,0,22.7 ,0,70.0 ,0,21.3 ,0,21.7 ,0,20.5 ,0
2003/11/3,22:15,18.8 ,0,88.0 ,0,22.7 ,0,70.4 ,0,20.6 ,0,21.7 ,0,20.4 ,0
2003/11/3,22:30,18.9 ,0,89.0 ,0,22.7 ,0,69.5 ,0,20.6 ,0,21.6 ,0,20.2 ,0
2003/11/3,22:45,18.7 ,0,89.0 ,0,22.7 ,0,70.0 ,0,20.7 ,0,21.6 ,0,20.1 ,0
2003/11/3,23:00,18.9 ,0,89.0 ,0,22.6 ,0,70.6 ,0,20.7 ,0,21.5 ,0,19.9 ,0
2003/11/3,23:15,19.1 ,0,84.0 ,0,22.5 ,0,71.0 ,0,20.7 ,0,21.5 ,0,19.7 ,0
2003/11/3,23:30,19.1 ,0,83.0 ,0,22.5 ,0,70.8 ,0,20.7 ,0,21.5 ,0,19.7 ,0
2003/11/3,23:45,19.7 ,0,76.0 ,0,22.6 ,0,69.6 ,0,20.9 ,0,21.5 ,0,19.8 ,0
2003/11/4,0:00,19.7 ,0,73.0 ,0,22.5 ,0,69.8 ,0,20.6 ,0,21.5 ,0,19.9 ,0
2003/11/4,0:15,19.7 ,0,72.0 ,0,22.4 ,0,69.6 ,0,20.6 ,0,21.5 ,0,20.1 ,0
2003/11/4,0:30,19.8 ,0,72.0 ,0,22.4 ,0,69.5 ,0,20.6 ,0,21.4 ,0,20.2 ,0
2003/11/4,0:45,19.5 ,0,76.0 ,0,22.4 ,0,69.6 ,0,20.6 ,0,21.4 ,0,20.3 ,0
2003/11/4,1:00,19.2 ,0,74.0 ,0,22.3 ,0,69.1 ,0,20.6 ,0,21.4 ,0,20.1 ,0
2003/11/4,1:15,19.0 ,0,74.0 ,0,22.2 ,0,69.2 ,0,20.7 ,0,21.3 ,0,20.1 ,0
2003/11/4,1:30,18.9 ,0,75.0 ,0,22.1 ,0,68.9 ,0,20.9 ,0,21.3 ,0,20.2 ,0
2003/11/4,1:45,18.9 ,0,74.0 ,0,22.0 ,0,68.4 ,0,21.0 ,0,21.2 ,0,20.2 ,0
2003/11/4,2:00,18.8 ,0,72.0 ,0,21.9 ,0,68.5 ,0,21.0 ,0,21.1 ,0,20.2 ,0
2003/11/4,2:15,18.8 ,0,68.0 ,0,21.8 ,0,68.2 ,0,21.0 ,0,21.0 ,0,20.1 ,0
2003/11/4,2:30,18.8 ,0,66.0 ,0,21.8 ,0,67.8 ,0,21.0 ,0,20.9 ,0,20.1 ,0
2003/11/4,2:45,18.7 ,0,68.0 ,0,21.7 ,0,67.2 ,0,21.0 ,0,20.8 ,0,20.0 ,0
2003/11/4,3:00,18.5 ,0,72.0 ,0,21.6 ,0,66.6 ,0,21.0 ,0,20.7 ,0,19.9 ,0
2003/11/4,3:15,18.4 ,0,71.0 ,0,21.5 ,0,66.3 ,0,21.1 ,0,20.6 ,0,19.8 ,0
2003/11/4,3:30,18.2 ,0,73.0 ,0,21.4 ,0,66.2 ,0,21.1 ,0,20.6 ,0,19.7 ,0
2003/11/4,3:45,18.2 ,0,73.0 ,0,21.3 ,0,66.2 ,0,21.1 ,0,20.5 ,0,19.6 ,0
2003/11/4,4:00,18.2 ,0,73.0 ,0,21.3 ,0,66.3 ,0,21.1 ,0,20.4 ,0,19.5 ,0
2003/11/4,4:15,17.9 ,0,75.0 ,0,21.2 ,0,66.6 ,0,21.1 ,0,20.3 ,0,19.5 ,0
2003/11/4,4:30,17.9 ,0,76.0 ,0,21.1 ,0,66.9 ,0,21.1 ,0,20.2 ,0,19.3 ,0
2003/11/4,4:45,17.8 ,0,75.0 ,0,21.0 ,0,67.1 ,0,21.1 ,0,20.2 ,0,19.2 ,0
2003/11/4,5:00,17.5 ,0,76.0 ,0,20.9 ,0,67.2 ,0,21.2 ,0,20.1 ,0,19.1 ,0
2003/11/4,5:15,17.3 ,0,76.0 ,0,20.8 ,0,67.5 ,0,21.2 ,0,20.0 ,0,18.9 ,0
2003/11/4,5:30,17.2 ,0,76.0 ,0,20.7 ,0,68.0 ,0,21.2 ,0,20.0 ,0,18.8 ,0
2003/11/4,5:45,17.1 ,0,75.0 ,0,20.7 ,0,68.1 ,0,21.2 ,0,20.0 ,0,18.7 ,0
2003/11/4,6:00,17.1 ,0,75.0 ,0,20.6 ,0,68.1 ,0,21.2 ,0,19.9 ,0,18.6 ,0
2003/11/4,6:15,16.8 ,0,76.0 ,0,20.5 ,0,68.1 ,0,21.2 ,0,19.9 ,0,18.5 ,0
2003/11/4,6:30,16.6 ,0,78.0 ,0,20.4 ,0,68.2 ,0,21.2 ,0,19.8 ,0,18.3 ,0
2003/11/4,6:45,16.4 ,0,78.0 ,0,20.3 ,0,68.3 ,0,21.1 ,0,19.8 ,0,18.3 ,0
2003/11/4,7:00,16.4 ,0,77.0 ,0,20.2 ,0,68.4 ,0,21.1 ,0,20.1 ,0,18.1 ,0
2003/11/4,7:15,16.2 ,0,80.0 ,0,20.2 ,0,69.0 ,0,21.1 ,0,20.1 ,0,18.1 ,0
2003/11/4,7:30,16.1 ,0,82.0 ,0,20.2 ,0,69.2 ,0,21.0 ,0,19.9 ,0,18.0 ,0
2003/11/4,7:45,17.1 ,0,77.0 ,0,20.1 ,0,68.5 ,0,21.0 ,0,19.8 ,0,17.9 ,0
2003/11/4,8:00,17.9 ,0,73.0 ,0,20.1 ,0,66.7 ,0,21.0 ,0,19.7 ,0,18.1 ,0
2003/11/4,8:15,18.5 ,0,69.0 ,0,20.0 ,0,66.9 ,0,21.0 ,0,19.6 ,0,18.2 ,0
2003/11/4,8:30,19.1 ,0,64.0 ,0,20.1 ,0,66.9 ,0,20.9 ,0,19.6 ,0,18.3 ,0
2003/11/4,8:45,19.6 ,0,62.0 ,0,20.3 ,0,66.0 ,0,20.9 ,0,19.9 ,0,18.4 ,0
2003/11/4,9:00,19.4 ,0,61.0 ,0,20.4 ,0,65.4 ,0,20.8 ,0,20.0 ,0,18.8 ,0
2003/11/4,9:15,20.0 ,0,61.0 ,0,20.6 ,0,65.2 ,0,20.8 ,0,19.9 ,0,19.0 ,0
2003/11/4,9:30,20.0 ,0,60.0 ,0,20.7 ,0,64.6 ,0,20.8 ,0,19.9 ,0,19.2 ,0
2003/11/4,9:45,20.4 ,0,59.0 ,0,20.9 ,0,64.1 ,0,20.8 ,0,19.9 ,0,19.3 ,0